Time,TemperatureF,DewpointF,PressureIn,WindDirection,WindDirectionDegrees,WindSpeedMPH,WindSpeedGustMPH,Humidity,HourlyPrecipIn,Conditions,Clouds,dailyrainin,SoftwareType,DateUTC
2013-01-12 00:03:00,35.1,35.0,30.14,ESE,115,0.0,0.0,98,0.00,,,0.00,weatherlink.com 1.10,2013-01-12 05:03:00,
2013-01-12 00:18:00,35.2,35.0,30.14,ESE,114,0.0,0.0,98,0.01,,,0.01,weatherlink.com 1.10,2013-01-12 05:18:00,
2013-01-12 00:33:00,35.2,35.0,30.13,ESE,115,0.0,0.0,98,0.02,,,0.02,weatherlink.com 1.10,2013-01-12 05:33:00,
2013-01-12 00:48:00,35.2,35.0,30.13,ESE,115,0.0,0.0,98,0.02,,,0.02,weatherlink.com 1.10,2013-01-12 05:48:00,
2013-01-12 01:04:00,35.6,35.0,30.12,WNW,300,2.0,2.0,98,0.02,,,0.02,weatherlink.com 1.10,2013-01-12 06:04:00,
2013-01-12 01:19:00,37.6,37.0,30.14,NNW,346,2.0,2.0,99,0.01,,,0.02,weatherlink.com 1.10,2013-01-12 06:19:00,
2013-01-12 01:34:00,38.3,38.0,30.14,WSW,256,0.0,2.0,99,0.01,,,0.03,weatherlink.com 1.10,2013-01-12 06:34:00,
2013-01-12 01:49:00,38.0,38.0,30.14,NE,35,0.0,1.0,99,0.01,,,0.03,weatherlink.com 1.10,2013-01-12 06:49:00,
2013-01-12 02:04:00,38.2,38.0,30.14,WNW,293,0.0,1.0,99,0.02,,,0.04,weatherlink.com 1.10,2013-01-12 07:04:00,
2013-01-12 02:19:00,38.6,38.0,30.14,West,260,0.0,3.0,99,0.02,,,0.04,weatherlink.com 1.10,2013-01-12 07:19:00,
2013-01-12 02:34:00,38.7,39.0,30.13,WNW,293,0.0,3.0,99,0.01,,,0.04,weatherlink.com 1.10,2013-01-12 07:34:00,
2013-01-12 02:49:00,38.5,38.0,30.13,West,277,0.0,3.0,99,0.01,,,0.04,weatherlink.com 1.10,2013-01-12 07:49:00,
2013-01-12 03:04:00,38.3,38.0,30.13,West,276,0.0,1.0,99,0.00,,,0.04,weatherlink.com 1.10,2013-01-12 08:04:00,
2013-01-12 03:19:00,38.2,38.0,30.12,West,277,0.0,0.0,99,0.01,,,0.05,weatherlink.com 1.10,2013-01-12 08:19:00,
2013-01-12 03:34:00,37.4,37.0,30.13,NW,312,0.0,2.0,98,0.01,,,0.05,weatherlink.com 1.10,2013-01-12 08:34:00,
2013-01-12 03:49:00,36.7,36.0,30.12,NW,310,0.0,0.0,98,0.01,,,0.05,weatherlink.com 1.10,2013-01-12 08:49:00,
2013-01-12 04:04:00,36.5,36.0,30.12,NW,311,0.0,0.0,98,0.01,,,0.05,weatherlink.com 1.10,2013-01-12 09:04:00,
2013-01-12 04:19:00,36.7,37.0,30.12,WNW,301,0.0,0.0,99,0.01,,,0.06,weatherlink.com 1.10,2013-01-12 09:19:00,
2013-01-12 04:34:00,37.0,37.0,30.11,NE,46,0.0,2.0,99,0.01,,,0.06,weatherlink.com 1.10,2013-01-12 09:34:00,
2013-01-12 04:49:00,36.6,36.0,30.10,NE,46,0.0,0.0,98,0.01,,,0.06,weatherlink.com 1.10,2013-01-12 09:49:00,
2013-01-12 05:04:00,35.9,35.0,30.09,NE,46,0.0,1.0,98,0.01,,,0.06,weatherlink.com 1.10,2013-01-12 10:04:00,
2013-01-12 05:19:00,35.8,35.0,30.11,NE,46,0.0,0.0,98,0.00,,,0.06,weatherlink.com 1.10,2013-01-12 10:19:00,
2013-01-12 05:34:00,35.7,35.0,30.12,ESE,115,0.0,0.0,98,0.00,,,0.06,weatherlink.com 1.10,2013-01-12 10:34:00,
2013-01-12 05:49:00,35.7,36.0,30.12,ESE,115,0.0,0.0,99,0.00,,,0.06,weatherlink.com 1.10,2013-01-12 10:49:00,
2013-01-12 06:04:00,35.8,36.0,30.12,ESE,104,0.0,0.0,99,0.00,,,0.06,weatherlink.com 1.10,2013-01-12 11:04:00,
2013-01-12 06:19:00,36.0,36.0,30.13,ESE,105,0.0,0.0,99,0.00,,,0.06,weatherlink.com 1.10,2013-01-12 11:19:00,
2013-01-12 06:34:00,36.5,36.0,30.14,North,4,1.0,1.0,99,0.00,,,0.06,weatherlink.com 1.10,2013-01-12 11:34:00,
2013-01-12 06:49:00,36.2,36.0,30.14,North,1,0.0,0.0,99,0.00,,,0.06,weatherlink.com 1.10,2013-01-12 11:49:00,
2013-01-12 07:04:00,36.4,36.0,30.16,North,1,0.0,0.0,99,0.01,,,0.07,weatherlink.com 1.10,2013-01-12 12:04:00,
2013-01-12 07:19:00,36.1,36.0,30.14,North,1,0.0,0.0,99,0.01,,,0.07,weatherlink.com 1.10,2013-01-12 12:19:00,
2013-01-12 07:34:00,36.1,36.0,30.16,North,1,0.0,0.0,99,0.01,,,0.07,weatherlink.com 1.10,2013-01-12 12:34:00,
2013-01-12 07:49:00,36.2,36.0,30.16,ESE,103,0.0,0.0,99,0.01,,,0.07,weatherlink.com 1.10,2013-01-12 12:49:00,
2013-01-12 08:04:00,36.5,36.0,30.16,ESE,103,0.0,0.0,99,0.00,,,0.07,weatherlink.com 1.10,2013-01-12 13:04:00,
2013-01-12 08:19:00,37.0,37.0,30.15,West,276,0.0,2.0,99,0.00,,,0.07,weatherlink.com 1.10,2013-01-12 13:19:00,
2013-01-12 08:34:00,38.2,38.0,30.16,NE,50,0.0,1.0,99,0.00,,,0.07,weatherlink.com 1.10,2013-01-12 13:34:00,
2013-01-12 08:49:00,38.9,39.0,30.16,West,276,0.0,4.0,99,0.00,,,0.07,weatherlink.com 1.10,2013-01-12 13:49:00,
2013-01-12 09:04:00,39.6,39.0,30.17,WNW,290,1.0,2.0,99,0.00,,,0.07,weatherlink.com 1.10,2013-01-12 14:04:00,
2013-01-12 09:19:00,39.6,39.0,30.17,NNW,335,0.0,2.0,99,0.00,,,0.07,weatherlink.com 1.10,2013-01-12 14:19:00,
2013-01-12 09:34:00,39.7,40.0,30.17,West,279,0.0,1.0,99,0.00,,,0.07,weatherlink.com 1.10,2013-01-12 14:34:00,
2013-01-12 09:49:00,39.8,40.0,30.16,West,278,0.0,0.0,99,0.00,,,0.07,weatherlink.com 1.10,2013-01-12 14:49:00,
2013-01-12 10:04:00,40.3,40.0,30.18,NW,307,2.0,3.0,99,0.00,,,0.07,weatherlink.com 1.10,2013-01-12 15:04:00,
2013-01-12 10:19:00,40.9,41.0,30.17,NW,307,0.0,1.0,99,0.00,,,0.07,weatherlink.com 1.10,2013-01-12 15:19:00,
2013-01-12 10:34:00,41.2,41.0,30.16,ESE,107,1.0,3.0,99,0.00,,,0.07,weatherlink.com 1.10,2013-01-12 15:34:00,
2013-01-12 10:49:00,41.3,41.0,30.15,WNW,300,0.0,3.0,98,0.00,,,0.07,weatherlink.com 1.10,2013-01-12 15:49:00,
2013-01-12 11:04:00,42.1,42.0,30.14,ENE,67,0.0,0.0,98,0.00,,,0.07,weatherlink.com 1.10,2013-01-12 16:04:00,
2013-01-12 11:19:00,42.0,42.0,30.14,WNW,300,0.0,2.0,98,0.00,,,0.07,weatherlink.com 1.10,2013-01-12 16:19:00,
2013-01-12 11:34:00,42.4,42.0,30.13,NW,315,0.0,0.0,98,0.00,,,0.07,weatherlink.com 1.10,2013-01-12 16:34:00,
2013-01-12 11:49:00,42.6,42.0,30.13,NNW,334,0.0,2.0,97,0.00,,,0.07,weatherlink.com 1.10,2013-01-12 16:49:00,
2013-01-12 12:04:00,43.1,42.0,30.13,NW,316,0.0,0.0,97,0.00,,,0.07,weatherlink.com 1.10,2013-01-12 17:04:00,
2013-01-12 12:19:00,43.3,43.0,30.13,ESE,109,0.0,0.0,97,0.00,,,0.07,weatherlink.com 1.10,2013-01-12 17:19:00,
2013-01-12 12:34:00,43.4,42.0,30.14,ESE,109,0.0,0.0,96,0.00,,,0.07,weatherlink.com 1.10,2013-01-12 17:34:00,
2013-01-12 12:49:00,43.7,43.0,30.14,NW,311,0.0,0.0,96,0.00,,,0.07,weatherlink.com 1.10,2013-01-12 17:49:00,
2013-01-12 13:04:00,43.7,43.0,30.14,NW,311,0.0,0.0,96,0.00,,,0.07,weatherlink.com 1.10,2013-01-12 18:04:00,
2013-01-12 13:19:00,43.8,43.0,30.14,NW,311,0.0,0.0,96,0.00,,,0.07,weatherlink.com 1.10,2013-01-12 18:19:00,
2013-01-12 13:34:00,43.3,42.0,30.15,West,281,0.0,0.0,96,0.00,,,0.07,weatherlink.com 1.10,2013-01-12 18:34:00,
2013-01-12 13:49:00,43.3,43.0,30.15,West,281,0.0,0.0,97,0.00,,,0.07,weatherlink.com 1.10,2013-01-12 18:49:00,
2013-01-12 14:04:00,43.2,42.0,30.16,West,281,0.0,0.0,97,0.00,,,0.07,weatherlink.com 1.10,2013-01-12 19:04:00,
2013-01-12 14:19:00,43.4,43.0,30.16,West,281,0.0,0.0,97,0.00,,,0.07,weatherlink.com 1.10,2013-01-12 19:19:00,
2013-01-12 14:35:00,43.6,43.0,30.15,West,281,0.0,0.0,98,0.00,,,0.07,weatherlink.com 1.10,2013-01-12 19:35:00,
2013-01-12 14:50:00,43.2,42.0,30.15,West,281,0.0,0.0,97,0.00,,,0.07,weatherlink.com 1.10,2013-01-12 19:50:00,
2013-01-12 15:05:00,43.0,42.0,30.15,West,281,0.0,0.0,97,0.00,,,0.07,weatherlink.com 1.10,2013-01-12 20:05:00,
2013-01-12 15:20:00,42.5,42.0,30.15,West,276,0.0,0.0,97,0.00,,,0.07,weatherlink.com 1.10,2013-01-12 20:20:00,
2013-01-12 15:35:00,42.5,42.0,30.15,West,276,0.0,0.0,98,0.00,,,0.07,weatherlink.com 1.10,2013-01-12 20:35:00,
2013-01-12 15:50:00,42.2,42.0,30.16,West,276,0.0,0.0,98,0.00,,,0.07,weatherlink.com 1.10,2013-01-12 20:50:00,
2013-01-12 16:05:00,41.8,41.0,30.16,West,276,0.0,0.0,98,0.00,,,0.07,weatherlink.com 1.10,2013-01-12 21:05:00,
2013-01-12 16:20:00,41.3,41.0,30.15,West,276,0.0,0.0,98,0.00,,,0.07,weatherlink.com 1.10,2013-01-12 21:20:00,
2013-01-12 16:35:00,40.7,40.0,30.16,West,276,0.0,0.0,98,0.00,,,0.07,weatherlink.com 1.10,2013-01-12 21:35:00,
2013-01-12 16:50:00,40.1,40.0,30.15,West,276,0.0,0.0,98,0.00,,,0.07,weatherlink.com 1.10,2013-01-12 21:50:00,
2013-01-12 17:05:00,39.7,39.0,30.17,West,278,0.0,0.0,98,0.00,,,0.07,weatherlink.com 1.10,2013-01-12 22:05:00,
2013-01-12 17:20:00,39.5,39.0,30.17,West,278,0.0,0.0,98,0.00,,,0.07,weatherlink.com 1.10,2013-01-12 22:20:00,
2013-01-12 17:35:00,39.2,39.0,30.17,West,276,0.0,0.0,98,0.00,,,0.07,weatherlink.com 1.10,2013-01-12 22:35:00,
2013-01-12 17:50:00,38.9,38.0,30.18,West,276,0.0,0.0,98,0.00,,,0.07,weatherlink.com 1.10,2013-01-12 22:50:00,
2013-01-12 18:05:00,38.9,38.0,30.18,ESE,112,0.0,0.0,98,0.00,,,0.07,weatherlink.com 1.10,2013-01-12 23:05:00,
2013-01-12 18:20:00,38.3,38.0,30.17,ESE,112,0.0,0.0,98,0.00,,,0.07,weatherlink.com 1.10,2013-01-12 23:20:00,
2013-01-12 18:35:00,38.4,38.0,30.16,ESE,115,0.0,0.0,98,0.00,,,0.07,weatherlink.com 1.10,2013-01-12 23:35:00,
2013-01-12 18:50:00,38.0,38.0,30.15,ESE,115,0.0,0.0,98,0.00,,,0.07,weatherlink.com 1.10,2013-01-12 23:50:00,
2013-01-12 19:05:00,38.1,38.0,30.16,ESE,115,0.0,0.0,99,0.00,,,0.07,weatherlink.com 1.10,2013-01-13 00:05:00,
2013-01-12 19:20:00,38.1,38.0,30.15,ESE,117,0.0,0.0,99,0.00,,,0.07,weatherlink.com 1.10,2013-01-13 00:20:00,
2013-01-12 19:35:00,37.7,37.0,30.15,ESE,117,0.0,0.0,98,0.00,,,0.07,weatherlink.com 1.10,2013-01-13 00:35:00,
2013-01-12 19:50:00,37.8,38.0,30.14,ESE,117,0.0,0.0,99,0.00,,,0.07,weatherlink.com 1.10,2013-01-13 00:50:00,
2013-01-12 20:05:00,37.6,37.0,30.16,ESE,117,0.0,0.0,99,0.00,,,0.07,weatherlink.com 1.10,2013-01-13 01:05:00,
2013-01-12 20:20:00,37.9,38.0,30.17,ESE,117,0.0,0.0,99,0.00,,,0.07,weatherlink.com 1.10,2013-01-13 01:20:00,
2013-01-12 20:35:00,38.0,38.0,30.16,ESE,117,0.0,0.0,99,0.00,,,0.07,weatherlink.com 1.10,2013-01-13 01:35:00,
2013-01-12 20:50:00,37.8,38.0,30.15,ESE,117,0.0,0.0,99,0.00,,,0.07,weatherlink.com 1.10,2013-01-13 01:50:00,
2013-01-12 21:05:00,37.6,37.0,30.15,ESE,117,0.0,0.0,99,0.00,,,0.07,weatherlink.com 1.10,2013-01-13 02:05:00,
2013-01-12 21:20:00,37.6,37.0,30.15,ESE,117,0.0,0.0,99,0.00,,,0.07,weatherlink.com 1.10,2013-01-13 02:20:00,
2013-01-12 21:35:00,37.7,38.0,30.15,ESE,117,0.0,0.0,99,0.00,,,0.07,weatherlink.com 1.10,2013-01-13 02:35:00,
2013-01-12 21:50:00,37.3,37.0,30.14,ESE,117,0.0,0.0,99,0.00,,,0.07,weatherlink.com 1.10,2013-01-13 02:50:00,
2013-01-12 22:05:00,37.4,37.0,30.14,ESE,110,0.0,0.0,99,0.00,,,0.07,weatherlink.com 1.10,2013-01-13 03:05:00,
2013-01-12 22:20:00,37.1,37.0,30.13,ESE,110,0.0,0.0,99,0.01,,,0.08,weatherlink.com 1.10,2013-01-13 03:20:00,
2013-01-12 22:35:00,37.2,37.0,30.13,ESE,110,0.0,0.0,99,0.01,,,0.08,weatherlink.com 1.10,2013-01-13 03:35:00,
2013-01-12 22:50:00,37.5,37.0,30.13,ESE,110,0.0,0.0,99,0.01,,,0.08,weatherlink.com 1.10,2013-01-13 03:50:00,
2013-01-12 23:05:00,37.4,37.0,30.14,ESE,110,0.0,0.0,99,0.01,,,0.08,weatherlink.com 1.10,2013-01-13 04:05:00,
2013-01-12 23:20:00,37.6,37.0,30.15,ESE,110,0.0,0.0,99,0.00,,,0.08,weatherlink.com 1.10,2013-01-13 04:20:00,
2013-01-12 23:35:00,37.6,37.0,30.14,ESE,110,0.0,0.0,99,0.00,,,0.08,weatherlink.com 1.10,2013-01-13 04:35:00,
2013-01-12 23:50:00,37.5,37.0,30.14,ESE,110,0.0,0.0,99,0.00,,,0.08,weatherlink.com 1.10,2013-01-13 04:50:00,